Location: Cercedilla
(40.7379°N, 4.0638°W)
Time: 21:21:26
(UTC+00:00)

Cosmos 1295 Rocket - Pass Details

Date: 07 June 2020
Orbit: 943 x 995 km, 82.9° (Epoch: 09 July)

Event Time Altitude Azimuth Distance (km) Brightness Sun altitude
Exits shadow 02:32:32 28° 189° (S) 1,757 5.3 -18.9°
Maximum altitude 02:36:05 85° 277° (W) 997 4.5 -18.5°
Drops below altitude 10° 02:42:24 10° 6° (N) 2,741 7.8 -17.9°
Sets 02:44:55 0° 7° (N) 3,685 8.6 -17.6°
